Home   Weather   Anderson   Past weeks

Flag for USA Past Weather in Anderson, South Carolina, USA — Yesterday and Last 2 Weeks

Now
57 °F

Low clouds.


Feels Like: 57 °F
Forecast: 56 / 69 °F
Wind: No wind

Location: Anderson County Airport

Current Time: Jan 21, 2017 at 8:47:30 pm

Latest Report: Jan 21, 2017 at 7:56 pm


Visibility: 9 mi

Pressure: 29.67 "Hg

Humidity: 93%

Dew Point: 55 °F

Location of AndersonLocation

Past Weather in Anderson — Graph

°F

Anderson Temperature Yesterday

Maximum temperature yesterday: 73 °F (at 3:56 pm)
Minimum temperature yesterday: 53 °F (at 10:56 pm)
Average temperature yesterday: 60 °F

High & Low Weather Summary for the Past Weeks

 TemperatureHumidityPressure
High76 °F (Jan 13, 1:56 pm)100% (Jan 13, 7:56 am)30.77 "Hg (Jan 13, 7:56 am)
Low17 °F (Jan 8, 7:56 am)22% (Jan 8, 3:56 pm)29.60 "Hg (Jan 21, 3:23 pm)
Average50 °F75%30.23 "Hg
* Reported Jan 6 6:56 pm — Jan 21 6:56 pm, Anderson, Weather by CustomWeather, © 2017

Note: Actual official high and low records may vary slightly from our data, if they occured in-between our weather recording intervals... More about our weather records

Advertising

Anderson Weather History for the Previous 24 Hours

Scroll right to see more
 ConditionsComfort  
Time TempWeatherWind HumidityBarometerVisibility
6:56 pm
Sat, Jan 21
57 °FLow clouds.7 mph93%29.64 "Hg10 mi
5:56 pm57 °FLow clouds.8 mph93%29.62 "Hg10 mi
5:17 pm57 °FMostly cloudy.8 mph93%29.63 "Hg10 mi
5:07 pm57 °FMore clouds than sun.10 mph93%29.63 "Hg10 mi
4:56 pm57 °FMostly cloudy.13 mph93%29.61 "Hg10 mi
4:28 pm57 °FLight rain. More clouds than sun.8 mph93%29.62 "Hg10 mi
3:56 pm57 °FMostly cloudy.8 mph93%29.62 "Hg10 mi
3:23 pm57 °FLight rain. Mostly cloudy.12 mph93%29.60 "Hg9 mi
3:05 pm56 °FHeavy rain. Fog.16 mph93%29.65 "Hg3 mi
2:18 pm56 °FHeavy rain. Fog.10 mph97%29.72 "Hg2 mi
1:56 pm56 °FHeavy rain. Fog.13 mph93%29.71 "Hg2 mi
1:34 pm56 °FHeavy rain. Fog.9 mph93%29.73 "Hg3 mi
12:56 pm57 °FHeavy rain. Fog.7 mph93%29.76 "Hg5 mi
11:56 am57 °FRain. Fog.6 mph96%29.81 "Hg5 mi
11:33 am57 °FRain. Fog.6 mph93%29.85 "Hg4 mi
11:22 am57 °FHeavy rain. Fog.8 mph96%29.86 "Hg2 mi
10:56 am56 °FRain. Fog.5 mph97%29.84 "Hg1 mi
10:35 am56 °FFog.5 mph97%29.86 "Hg1 mi
9:56 am56 °FFog.5 mph97%29.85 "Hg4 mi
9:38 am56 °FFog.6 mph97%29.85 "Hg4 mi
8:56 am55 °FFog.6 mph96%29.84 "Hg3 mi
8:22 am55 °FFog.5 mph93%29.86 "Hg4 mi
7:56 am54 °FFog.6 mph97%29.83 "Hg3 mi
7:33 am54 °FFog.6 mph97%29.85 "Hg4 mi
6:56 am54 °FLow clouds.8 mph93%29.85 "Hg10 mi
5:56 am55 °FLow clouds.5 mph90%29.85 "Hg10 mi
4:56 am55 °FOvercast.3 mph90%29.86 "Hg10 mi
4:22 am54 °FPassing clouds.7 mph90%29.87 "Hg10 mi
3:56 am54 °FMostly cloudy.No wind93%29.86 "Hg10 mi
3:32 am53 °FPassing clouds.5 mph96%29.89 "Hg10 mi
2:56 am52 °FPassing clouds.3 mph93%29.86 "Hg10 mi
1:56 am54 °FPassing clouds.No wind93%29.87 "Hg10 mi
12:56 am55 °FClear.No wind90%29.85 "Hg10 mi
11:56 pm
Fri, Jan 20
54 °FClear.No wind90%29.87 "Hg10 mi
10:56 pm53 °FPassing clouds.No wind93%29.88 "Hg10 mi
9:56 pm54 °FClear.No wind90%29.86 "Hg10 mi
8:56 pm57 °FClear.No wind81%29.85 "Hg10 mi
Weather by CustomWeather, © 2017

See weather overviewHow to use our weather pages